Simultaneous Nadir Overpasses (SNOs) Predictions

Prediction of SNOs between NOAA-20 and METOP-C Satellite Orbit:

Table of predicted SNOs for the next 14.0 days since TLE Epoch: 8/22/2019
Index Date (NOAA-20) Time (NOAA-20) Lat,Lon (NOAA-20) SZA (NOAA-20 ) Date (METOP-C) Time (METOP-C) Lat,Lon (METOP-C) SZA (METOP-C ) Distance(km) Time Diff (sec)
1 09/05/2019 15:00:09 73.44, -54.76 66.83 09/05/2019 15:01:15 73.41, -51.87 66.67 91.90 66
2 09/05/2019 15:50:52 -73.38, 112.69 113.23 09/05/2019 15:51:59 -73.32, 115.25 113.41 82.01 67
3 09/05/2019 16:41:33 73.15, -79.49 66.53 09/05/2019 16:42:43 73.09, -77.92 66.39 50.90 70
4 09/05/2019 17:32:16 -73.09, 87.96 113.52 09/05/2019 17:33:27 -73.00, 89.21 113.68 41.75 71
5 09/05/2019 18:22:57 72.85,-104.23 66.24 09/05/2019 18:24:10 72.82,-103.84 66.17 13.27 73




NCC Satellite Simultaneous Nadir Overpasses (SNOs) Prediction Service
